TimeCST,TemperatureF,Dew PointF,Humidity,Sea Level PressureIn,VisibilityMPH,Wind Direction,Wind SpeedMPH,Gust SpeedMPH,PrecipitationIn,Events,Conditions,WindDirDegrees,DateUTC
12:53 AM,1.0,-2.9,83,30.29,10.0,NW,6.9,-,N/A,,Clear,320,2013-01-03 06:53:00
1:53 AM,1.9,-2.9,80,30.29,10.0,NW,9.2,-,N/A,,Clear,310,2013-01-03 07:53:00
2:53 AM,1.9,-2.9,80,30.32,10.0,WNW,4.6,-,N/A,,Partly Cloudy,290,2013-01-03 08:53:00
3:53 AM,6.1,1.0,80,30.30,10.0,West,4.6,-,0.00,Snow,Light Snow,280,2013-01-03 09:53:00
4:53 AM,1.9,-2.0,83,30.30,10.0,WSW,3.5,-,0.00,,Overcast,250,2013-01-03 10:53:00
5:53 AM,1.9,-2.0,83,30.28,10.0,South,6.9,-,N/A,,Partly Cloudy,190,2013-01-03 11:53:00
6:33 AM,1.4,-2.2,85,30.22,10.0,SW,6.9,-,N/A,,Mostly Cloudy,220,2013-01-03 12:33:00
6:53 AM,3.9,-0.9,80,30.27,10.0,SSW,8.1,-,N/A,,Mostly Cloudy,210,2013-01-03 12:53:00
7:53 AM,6.1,1.9,83,30.26,10.0,South,9.2,-,N/A,,Mostly Cloudy,190,2013-01-03 13:53:00
8:53 AM,8.1,3.0,80,30.23,10.0,SSW,11.5,-,N/A,,Partly Cloudy,200,2013-01-03 14:53:00
9:30 AM,10.4,6.8,85,30.15,10.0,SSW,12.7,-,N/A,,Mostly Cloudy,200,2013-01-03 15:30:00
9:53 AM,12.0,7.0,80,30.21,10.0,SSW,12.7,-,N/A,,Overcast,200,2013-01-03 15:53:00
10:13 AM,14.0,8.6,79,30.13,10.0,SSW,11.5,-,N/A,,Scattered Clouds,210,2013-01-03 16:13:00
10:53 AM,15.1,10.0,80,30.18,10.0,SSW,11.5,-,N/A,,Scattered Clouds,210,2013-01-03 16:53:00
11:53 AM,19.9,12.9,74,30.14,10.0,SW,19.6,24.2,N/A,,Scattered Clouds,230,2013-01-03 17:53:00
12:53 PM,21.0,14.0,74,30.10,10.0,SW,16.1,-,N/A,,Scattered Clouds,220,2013-01-03 18:53:00
1:53 PM,24.1,16.0,71,30.06,10.0,SW,17.3,-,N/A,,Mostly Cloudy,230,2013-01-03 19:53:00
2:53 PM,24.1,16.0,71,30.04,10.0,SSW,13.8,-,N/A,,Partly Cloudy,210,2013-01-03 20:53:00
3:53 PM,24.1,17.1,75,30.02,10.0,SSW,13.8,-,N/A,,Partly Cloudy,200,2013-01-03 21:53:00
4:53 PM,21.9,15.1,75,30.00,10.0,SSW,12.7,-,N/A,,Scattered Clouds,200,2013-01-03 22:53:00
5:53 PM,21.9,15.1,75,29.97,10.0,SSW,15.0,-,N/A,,Scattered Clouds,200,2013-01-03 23:53:00
6:53 PM,21.9,14.0,72,29.94,10.0,SSW,13.8,-,N/A,,Clear,200,2013-01-04 00:53:00
7:53 PM,21.0,12.0,68,29.94,10.0,SW,12.7,-,N/A,,Clear,220,2013-01-04 01:53:00
8:53 PM,21.9,12.0,66,29.91,10.0,SW,8.1,-,N/A,,Clear,220,2013-01-04 02:53:00
9:53 PM,21.0,12.0,68,29.91,10.0,WSW,5.8,-,N/A,,Clear,250,2013-01-04 03:53:00
10:53 PM,21.0,12.9,71,29.92,10.0,WNW,4.6,-,N/A,,Clear,300,2013-01-04 04:53:00
11:53 PM,21.0,12.9,71,29.94,10.0,WNW,10.4,-,N/A,,Clear,290,2013-01-04 05:53:00